| time (UTC) | temp C | wind direction | speed KPH | gust KPH | rain 1hr cm | rain 24hr cm | rain mn cm | humidity % | barometer mb |
| 20260510020537 | 24 | 126 | 8.0 | 19.3 | 0.00 | 0.00 | 0.00 | 77 | 1009.2 |
| 20260510020112 | 24 | 143 | 3.2 | 12.9 | 0.00 | 0.00 | 0.00 | 80 | 1009.1 |
| 20260510014510 | 25 | 135 | 4.8 | 19.3 | 0.00 | 0.00 | 0.00 | 80 | 1008.8 |
| 20260510013002 | 25 | 140 | 8.0 | 12.9 | 0.00 | 0.00 | 0.00 | 78 | 1008.6 |
| 20260510012937 | 25 | 129 | 4.8 | 12.9 | 0.00 | 0.00 | 0.00 | 77 | 1008.7 |
| 20260510012037 | 25 | 128 | 3.2 | 8.0 | 0.00 | 0.00 | 0.00 | 76 | 1008.4 |
| 20260510011508 | 25 | 135 | 1.6 | 8.0 | 0.00 | 0.00 | 0.00 | 75 | 1008.4 |
| 20260510011137 | 26 | 137 | 3.2 | 8.0 | 0.00 | 0.00 | 0.00 | 75 | 1008.4 |
| 20260510010237 | 26 | 115 | 3.2 | 6.4 | 0.00 | 0.00 | 0.00 | 73 | 1008.3 |
| 20260510010007 | 26 | 150 | 3.2 | 6.4 | 0.00 | 0.00 | 0.00 | 73 | 1008.3 |
| 20260510005337 | 26 | 107 | 0.0 | 4.8 | 0.00 | 0.00 | 0.00 | 71 | 1008.2 |
| 20260510004503 | 26 | 69 | 0.0 | 1.6 | 0.00 | 0.00 | 0.00 | 70 | 1008.1 |
| 20260510004437 | 27 | 69 | 0.0 | 1.6 | 0.00 | 0.00 | 0.00 | 70 | 1008.1 |
| 20260510003537 | 27 | 115 | 0.0 | 3.2 | 0.00 | 0.00 | 0.00 | 69 | 1007.9 |
| 20260510003103 | 27 | 115 | 0.0 | 3.2 | 0.00 | 0.00 | 0.00 | 68 | 1008.0 |
| 20260510001737 | 27 | 141 | 1.6 | 4.8 | 0.00 | 0.00 | 0.00 | 68 | 1007.7 |
| 20260510001602 | 27 | 151 | 1.6 | 4.8 | 0.00 | 0.00 | 0.00 | 66 | 1007.8 |
| 20260510000837 | 27 | 114 | 1.6 | 4.8 | 0.00 | 0.00 | 0.00 | 64 | 1007.6 |
| 20260510000013 | 28 | 113 | 0.0 | 4.8 | 0.00 | 0.00 | 0.00 | 65 | 1007.7 |
| 20260509235037 | 28 | 166 | 3.2 | 6.4 | 0.00 | 0.00 | 0.00 | 64 | 1007.6 |
| 20260509234507 | 28 | 150 | 1.6 | 6.4 | 0.00 | 0.00 | 0.00 | 64 | 1007.6 |
| 20260509234137 | 28 | 157 | 4.8 | 8.0 | 0.00 | 0.00 | 0.00 | 63 | 1007.5 |
| 20260509233237 | 29 | 143 | 4.8 | 8.0 | 0.00 | 0.00 | 0.00 | 63 | 1007.6 |
| 20260509233107 | 28 | 136 | 3.2 | 8.0 | 0.00 | 0.00 | 0.00 | 62 | 1007.6 |
| 20260509232337 | 29 | 163 | 4.8 | 9.7 | 0.00 | 0.00 | 0.00 | 61 | 1007.4 |
| 20260509231610 | 29 | 177 | 1.6 | 8.0 | 0.00 | 0.00 | 0.00 | 61 | 1007.5 |
| 20260509230537 | 30 | 177 | 3.2 | 8.0 | 0.00 | 0.00 | 0.00 | 58 | 1007.5 |
| 20260509230103 | 29 | 182 | 3.2 | 6.4 | 0.00 | 0.00 | 0.00 | 60 | 1007.5 |
| 20260509225637 | 30 | 172 | 4.8 | 9.7 | 0.00 | 0.00 | 0.00 | 60 | 1007.5 |
| 20260509224737 | 30 | 159 | 4.8 | 8.0 | 0.00 | 0.00 | 0.00 | 60 | 1007.4 |
| 20260509224504 | 29 | 171 | 4.8 | 9.7 | 0.00 | 0.00 | 0.00 | 61 | 1007.4 |
| 20260509223837 | 30 | 129 | 4.8 | 8.0 | 0.00 | 0.00 | 0.00 | 59 | 1007.4 |
| 20260509223005 | 29 | 154 | 3.2 | 9.7 | 0.00 | 0.00 | 0.00 | 61 | 1007.3 |
| 20260509222036 | 30 | 154 | 3.2 | 8.0 | 0.00 | 0.00 | 0.00 | 60 | 1007.3 |
| 20260509221507 | 29 | 180 | 3.2 | 8.0 | 0.00 | 0.00 | 0.00 | 61 | 1007.3 |
| 20260509221137 | 30 | 148 | 4.8 | 8.0 | 0.00 | 0.00 | 0.00 | 62 | 1007.4 |
| 20260509220237 | 30 | 129 | 3.2 | 8.0 | 0.00 | 0.00 | 0.00 | 61 | 1007.4 |
| 20260509220107 | 29 | 174 | 3.2 | 9.7 | 0.00 | 0.00 | 0.00 | 61 | 1007.3 |
| 20260509215337 | 30 | 153 | 4.8 | 9.7 | 0.00 | 0.00 | 0.00 | 59 | 1007.4 |
| 20260509214504 | 30 | 105 | 6.4 | 11.3 | 0.00 | 0.00 | 0.00 | 59 | 1007.3 |
| 20260509214437 | 30 | 182 | 6.4 | 11.3 | 0.00 | 0.00 | 0.00 | 61 | 1007.3 |
| 20260509213537 | 30 | 159 | 3.2 | 8.0 | 0.00 | 0.00 | 0.00 | 62 | 1007.3 |
| 20260509213104 | 29 | 174 | 3.2 | 8.0 | 0.00 | 0.00 | 0.00 | 63 | 1007.5 |
| 20260509212636 | 29 | 154 | 6.4 | 11.3 | 0.00 | 0.00 | 0.00 | 63 | 1007.4 |
| 20260509211511 | 28 | 181 | 4.8 | 11.3 | 0.00 | 0.00 | 0.00 | 66 | 1007.6 |
| 20260509210837 | 28 | 157 | 3.2 | 9.7 | 0.00 | 0.00 | 0.00 | 65 | 1007.7 |
| 20260509210109 | 28 | 85 | 0.0 | 4.8 | 0.00 | 0.00 | 0.00 | 63 | 1007.9 |
| 20260509205937 | 28 | 86 | 1.6 | 4.8 | 0.00 | 0.00 | 0.00 | 64 | 1007.8 |
| 20260509205037 | 28 | 114 | 3.2 | 11.3 | 0.00 | 0.00 | 0.00 | 65 | 1008.0 |
| 20260509204512 | 28 | 277 | 1.6 | 11.3 | 0.00 | 0.00 | 0.00 | 62 | 1008.1 |
| 20260509204136 | 29 | 62 | 1.6 | 11.3 | 0.00 | 0.00 | 0.00 | 62 | 1008.1 |
| 20260509203236 | 30 | 151 | 4.8 | 11.3 | 0.00 | 0.00 | 0.00 | 62 | 1008.1 |
| 20260509203012 | 29 | 84 | 4.8 | 11.3 | 0.00 | 0.00 | 0.00 | 63 | 1008.2 |
| 20260509202336 | 30 | 132 | 4.8 | 11.3 | 0.00 | 0.00 | 0.00 | 65 | 1008.2 |
| 20260509201604 | 29 | 110 | 4.8 | 14.5 | 0.00 | 0.00 | 0.00 | 65 | 1008.4 |
| 20260509201436 | 29 | 125 | 6.4 | 14.5 | 0.00 | 0.00 | 0.00 | 65 | 1008.4 |
| 20260509200005 | 30 | 125 | 4.8 | 9.7 | 0.00 | 0.00 | 0.00 | 65 | 1008.5 |
| 20260509195636 | 30 | 152 | 3.2 | 9.7 | 0.00 | 0.00 | 0.00 | 62 | 1008.6 |
| 20260509194737 | 30 | 167 | 6.4 | 12.9 | 0.00 | 0.00 | 0.00 | 61 | 1008.6 |
| 20260509194606 | 30 | 170 | 6.4 | 12.9 | 0.00 | 0.00 | 0.00 | 61 | 1008.6 |
| 20260509193836 | 29 | 174 | 4.8 | 12.9 | 0.00 | 0.00 | 0.00 | 63 | 1008.7 |
| 20260509193006 | 29 | 163 | 8.0 | 11.3 | 0.00 | 0.00 | 0.00 | 62 | 1008.8 |
| 20260509192937 | 29 | 157 | 6.4 | 11.3 | 0.00 | 0.00 | 0.00 | 62 | 1008.8 |
| 20260509192037 | 29 | 80 | 4.8 | 8.0 | 0.00 | 0.00 | 0.00 | 65 | 1008.9 |
| 20260509191505 | 28 | 142 | 3.2 | 12.9 | 0.00 | 0.00 | 0.00 | 65 | 1008.9 |
| 20260509191136 | 29 | 152 | 6.4 | 14.5 | 0.00 | 0.00 | 0.00 | 65 | 1009.0 |
| 20260509190004 | 28 | 91 | 3.2 | 9.7 | 0.00 | 0.00 | 0.00 | 66 | 1009.0 |
| 20260509184515 | 28 | 110 | 3.2 | 9.7 | 0.00 | 0.00 | 0.00 | 64 | 1009.2 |
| 20260509184437 | 28 | 142 | 4.8 | 12.9 | 0.00 | 0.00 | 0.00 | 67 | 1009.2 |
| 20260509183536 | 28 | 139 | 3.2 | 12.9 | 0.00 | 0.00 | 0.00 | 67 | 1009.1 |
| 20260509183104 | 27 | 159 | 1.6 | 8.0 | 0.00 | 0.00 | 0.00 | 69 | 1009.2 |
| 20260509182636 | 28 | 116 | 3.2 | 6.4 | 0.00 | 0.00 | 0.00 | 66 | 1009.1 |
| 20260509181736 | 28 | 78 | 3.2 | 8.0 | 0.00 | 0.00 | 0.00 | 65 | 1009.1 |
| 20260509181603 | 28 | 334 | 1.6 | 8.0 | 0.00 | 0.00 | 0.00 | 64 | 1009.2 |
| 20260509180103 | 27 | 322 | 4.8 | 11.3 | 0.00 | 0.00 | 0.00 | 66 | 1009.2 |
| 20260509175936 | 27 | 341 | 4.8 | 9.7 | 0.00 | 0.00 | 0.00 | 66 | 1009.2 |
| 20260509174508 | 27 | 299 | 4.8 | 9.7 | 0.00 | 0.00 | 0.00 | 67 | 1009.4 |
| 20260509174136 | 27 | 67 | 4.8 | 11.3 | 0.00 | 0.00 | 0.00 | 67 | 1009.3 |
| 20260509173015 | 27 | 77 | 0.0 | 4.8 | 0.00 | 0.00 | 0.00 | 67 | 1009.6 |
| 20260509172336 | 27 | 44 | 1.6 | 4.8 | 0.00 | 0.00 | 0.00 | 68 | 1009.6 |
| 20260509171510 | 27 | 67 | 1.6 | 6.4 | 0.00 | 0.00 | 0.00 | 68 | 1009.8 |
| 20260509171436 | 27 | 72 | 1.6 | 6.4 | 0.00 | 0.00 | 0.00 | 68 | 1009.7 |
| 20260509170126 | 26 | 325 | 3.2 | 9.7 | 0.00 | 0.00 | 0.00 | 69 | 1009.7 |
| 20260509165636 | 27 | 160 | 1.6 | 3.2 | 0.00 | 0.00 | 0.00 | 74 | 1009.6 |
| 20260509164506 | 26 | 143 | 1.6 | 6.4 | 0.00 | 0.00 | 0.00 | 71 | 1009.7 |
| 20260509163836 | 26 | 39 | 1.6 | 4.8 | 0.00 | 0.00 | 0.00 | 72 | 1009.6 |
| 20260509163104 | 26 | 46 | 1.6 | 9.7 | 0.00 | 0.00 | 0.00 | 72 | 1009.7 |
| 20260509162936 | 26 | 26 | 1.6 | 9.7 | 0.00 | 0.00 | 0.00 | 73 | 1009.5 |
| 20260509162036 | 26 | 78 | 1.6 | 8.0 | 0.00 | 0.00 | 0.00 | 79 | 1009.4 |
| 20260509161603 | 25 | 54 | 0.0 | 8.0 | 0.00 | 0.00 | 0.00 | 76 | 1009.4 |
| 20260509161136 | 25 | 21 | 1.6 | 8.0 | 0.00 | 0.00 | 0.00 | 75 | 1009.4 |
| 20260509160236 | 25 | 48 | 1.6 | 4.8 | 0.00 | 0.00 | 0.00 | 78 | 1009.3 |
| 20260509160016 | 25 | 125 | 1.6 | 6.4 | 0.00 | 0.00 | 0.00 | 76 | 1009.4 |
| 20260509155336 | 26 | 293 | 3.2 | 9.7 | 0.00 | 0.00 | 0.00 | 75 | 1009.6 |
| 20260509154506 | 25 | 253 | 3.2 | 8.0 | 0.00 | 0.00 | 0.00 | 77 | 1009.6 |
| 20260509154436 | 25 | 335 | 1.6 | 8.0 | 0.00 | 0.00 | 0.00 | 76 | 1009.5 |
| 20260509153536 | 25 | 318 | 4.8 | 9.7 | 0.00 | 0.00 | 0.00 | 76 | 1009.6 |
| 20260509153103 | 25 | 5 | 4.8 | 8.0 | 0.00 | 0.00 | 0.00 | 77 | 1009.9 |
| 20260509152636 | 25 | 238 | 1.6 | 8.0 | 0.00 | 0.00 | 0.00 | 77 | 1009.8 |
| 20260509151736 | 25 | 262 | 1.6 | 8.0 | 0.00 | 0.00 | 0.00 | 78 | 1009.7 |
| 20260509151626 | 24 | 58 | 1.6 | 8.0 | 0.00 | 0.00 | 0.00 | 77 | 1009.9 |
| 20260509150009 | 23 | 227 | 1.6 | 9.7 | 0.00 | 0.00 | 0.00 | 81 | 1010.0 |
| 20260509145936 | 24 | 203 | 3.2 | 9.7 | 0.00 | 0.00 | 0.00 | 82 | 1009.8 |
| 20260509145036 | 23 | 211 | 1.6 | 6.4 | 0.00 | 0.00 | 0.00 | 84 | 1009.9 |
| 20260509144503 | 22 | 333 | 1.6 | 6.4 | 0.00 | 0.00 | 0.00 | 86 | 1010.0 |
| 20260509144136 | 22 | 310 | 1.6 | 6.4 | 0.00 | 0.00 | 0.00 | 87 | 1009.9 |
| 20260509143236 | 22 | 329 | 1.6 | 4.8 | 0.00 | 0.00 | 0.00 | 87 | 1010.0 |
| 20260509143108 | 21 | 336 | 0.0 | 4.8 | 0.00 | 0.00 | 0.00 | 87 | 1010.2 |
| 20260509142336 | 21 | 329 | 1.6 | 6.4 | 0.00 | 0.00 | 0.00 | 88 | 1010.0 |
| 20260509141606 | 21 | 346 | 0.0 | 4.8 | 0.00 | 0.00 | 0.00 | 88 | 1010.1 |
| 20260509141436 | 21 | 333 | 1.6 | 6.4 | 0.00 | 0.00 | 0.00 | 89 | 1010.0 |
| 20260509140536 | 21 | 311 | 1.6 | 6.4 | 0.00 | 0.00 | 0.00 | 89 | 1010.0 |
| 20260509140107 | 20 | 279 | 0.0 | 4.8 | 0.00 | 0.00 | 0.00 | 90 | 1010.2 |
| 20260509135636 | 20 | 195 | 1.6 | 3.2 | 0.00 | 0.00 | 0.00 | 91 | 1010.0 |
| 20260509134736 | 20 | 135 | 0.0 | 3.2 | 0.00 | 0.00 | 0.00 | 92 | 1010.0 |
| 20260509134606 | 20 | 136 | 0.0 | 3.2 | 0.00 | 0.00 | 0.00 | 92 | 1010.2 |
| 20260509133836 | 20 | 160 | 0.0 | 3.2 | 0.00 | 0.00 | 0.00 | 93 | 1010.1 |
| 20260509133106 | 19 | 67 | 0.0 | 3.2 | 0.00 | 0.00 | 0.00 | 93 | 1010.3 |
| 20260509132036 | 18 | 74 | 0.0 | 3.2 | 0.00 | 0.00 | 0.00 | 93 | 1010.2 |
| 20260509131510 | 18 | 67 | 0.0 | 1.6 | 0.00 | 0.00 | 0.00 | 93 | 1010.4 |
| 20260509131136 | 18 | 102 | 0.0 | 3.2 | 0.00 | 0.00 | 0.00 | 94 | 1010.3 |
| 20260509130236 | 18 | 76 | 0.0 | 3.2 | 0.00 | 0.00 | 0.00 | 94 | 1010.3 |
| 20260509130128 | 18 | 76 | 0.0 | 3.2 | 0.00 | 0.00 | 0.00 | 94 | 1010.5 |
| 20260509125336 | 17 | 202 | 0.0 | 3.2 | 0.00 | 0.00 | 0.00 | 94 | 1010.3 |
| 20260509124605 | 17 | 205 | 0.0 | 1.6 | 0.00 | 0.00 | 0.00 | 93 | 1010.5 |
| 20260509124436 | 17 | 30 | 0.0 | 1.6 | 0.00 | 0.00 | 0.00 | 93 | 1010.2 |
| 20260509123536 | 17 | 31 | 0.0 | 1.6 | 0.00 | 0.00 | 0.00 | 94 | 1010.2 |
| 20260509123008 | 17 | 30 | 0.0 | 3.2 | 0.00 | 0.00 | 0.00 | 93 | 1010.4 |
| 20260509122636 | 17 | 159 | 0.0 | 3.2 | 0.00 | 0.00 | 0.00 | 93 | 1010.1 |
| 20260509121736 | 17 | 120 | 0.0 | 1.6 | 0.00 | 0.00 | 0.00 | 93 | 1009.9 |
| 20260509121604 | 17 | 121 | 0.0 | 1.6 | 0.00 | 0.00 | 0.00 | 93 | 1010.0 |
| 20260509120836 | 17 | 61 | 0.0 | 3.2 | 0.00 | 0.00 | 0.00 | 93 | 1009.7 |
| 20260509120012 | 17 | 28 | 0.0 | 3.2 | 0.00 | 0.00 | 0.00 | 93 | 1009.7 |
| 20260509115936 | 17 | 37 | 0.0 | 3.2 | 0.00 | 0.00 | 0.00 | 93 | 1009.5 |
| 20260509115036 | 17 | 100 | 0.0 | 1.6 | 0.00 | 0.00 | 0.00 | 92 | 1009.2 |
| 20260509114505 | 17 | 100 | 0.0 | 0.0 | 0.00 | 0.00 | 0.00 | 92 | 1009.3 |
| 20260509114136 | 17 | 281 | 0.0 | 1.6 | 0.00 | 0.00 | 0.00 | 92 | 1009.1 |
| 20260509113236 | 17 | 189 | 0.0 | 1.6 | 0.00 | 0.00 | 0.00 | 91 | 1008.9 |
| 20260509113136 | 17 | 164 | 0.0 | 1.6 | 0.00 | 0.00 | 0.00 | 91 | 1009.1 |
| 20260509112336 | 17 | 0 | 0.0 | 0.0 | 0.00 | 0.00 | 0.00 | 91 | 1008.8 |
| 20260509111504 | 17 | 238 | 0.0 | 0.0 | 0.00 | 0.00 | 0.00 | 91 | 1008.9 |
| 20260509111436 | 17 | 0 | 0.0 | 0.0 | 0.00 | 0.00 | 0.00 | 91 | 1008.7 |
| 20260509110536 | 17 | 0 | 0.0 | 0.0 | 0.00 | 0.00 | 0.00 | 91 | 1008.5 |
| 20260509110107 | 17 | 248 | 0.0 | 0.0 | 0.00 | 0.00 | 0.00 | 91 | 1008.5 |
| 20260509104506 | 17 | 248 | 0.0 | 0.0 | 0.00 | 0.00 | 0.00 | 90 | 1008.7 |
| 20260509103836 | 17 | 0 | 0.0 | 0.0 | 0.00 | 0.00 | 0.00 | 91 | 1008.5 |
| 20260509103003 | 17 | 248 | 0.0 | 0.0 | 0.00 | 0.00 | 0.00 | 90 | 1008.7 |
| 20260509101512 | 17 | 248 | 0.0 | 1.6 | 0.00 | 0.00 | 0.00 | 90 | 1008.8 |
| 20260509100236 | 17 | 193 | 0.0 | 3.2 | 0.00 | 0.00 | 0.00 | 90 | 1008.6 |
| 20260509100005 | 17 | 192 | 0.0 | 1.6 | 0.00 | 0.00 | 0.00 | 90 | 1008.8 |
| 20260509095336 | 17 | 193 | 0.0 | 3.2 | 0.00 | 0.00 | 0.00 | 90 | 1008.6 |
| 20260509094436 | 17 | 190 | 3.2 | 4.8 | 0.00 | 0.00 | 0.00 | 89 | 1008.8 |
| 20260509093536 | 17 | 185 | 1.6 | 4.8 | 0.00 | 0.00 | 0.00 | 89 | 1008.8 |
| 20260509093006 | 17 | 30 | 0.0 | 3.2 | 0.00 | 0.00 | 0.00 | 89 | 1009.0 |
| 20260509092636 | 17 | 0 | 0.0 | 0.0 | 0.00 | 0.00 | 0.00 | 88 | 1008.8 |
| 20260509091603 | 17 | 30 | 0.0 | 0.0 | 0.00 | 0.00 | 0.00 | 88 | 1008.9 |
| 20260509090836 | 17 | 0 | 0.0 | 0.0 | 0.00 | 0.00 | 0.00 | 88 | 1008.6 |
| 20260509090003 | 17 | 30 | 0.0 | 0.0 | 0.00 | 0.00 | 0.00 | 88 | 1008.7 |
| 20260509085936 | 17 | 0 | 0.0 | 0.0 | 0.00 | 0.00 | 0.00 | 88 | 1008.5 |
| 20260509085036 | 17 | 0 | 0.0 | 0.0 | 0.00 | 0.00 | 0.00 | 88 | 1008.3 |
| 20260509084509 | 17 | 30 | 0.0 | 0.0 | 0.00 | 0.00 | 0.00 | 88 | 1008.5 |
| 20260509084136 | 17 | 0 | 0.0 | 0.0 | 0.00 | 0.00 | 0.00 | 88 | 1008.4 |
| 20260509083236 | 17 | 0 | 0.0 | 0.0 | 0.00 | 0.00 | 0.00 | 88 | 1008.5 |
| 20260509083003 | 17 | 30 | 0.0 | 3.2 | 0.00 | 0.00 | 0.00 | 88 | 1008.6 |
| 20260509082336 | 17 | 11 | 1.6 | 4.8 | 0.00 | 0.00 | 0.00 | 88 | 1008.5 |
| 20260509081506 | 17 | 355 | 1.6 | 4.8 | 0.00 | 0.00 | 0.00 | 88 | 1008.6 |
| 20260509081436 | 17 | 1 | 1.6 | 4.8 | 0.00 | 0.00 | 0.00 | 88 | 1008.4 |
| 20260509080536 | 17 | 1 | 0.0 | 1.6 | 0.00 | 0.00 | 0.00 | 88 | 1008.6 |
| 20260509080005 | 17 | 360 | 0.0 | 1.6 | 0.00 | 0.00 | 0.00 | 88 | 1009.0 |
| 20260509075636 | 17 | 1 | 0.0 | 3.2 | 0.00 | 0.00 | 0.00 | 88 | 1008.7 |
| 20260509074603 | 17 | 71 | 0.0 | 3.2 | 0.00 | 0.00 | 0.00 | 88 | 1009.0 |
| 20260509073836 | 17 | 43 | 1.6 | 4.8 | 0.00 | 0.00 | 0.00 | 88 | 1008.9 |
| 20260509073006 | 17 | 5 | 1.6 | 6.4 | 0.00 | 0.00 | 0.00 | 88 | 1009.0 |
| 20260509072936 | 17 | 16 | 1.6 | 6.4 | 0.00 | 0.00 | 0.00 | 88 | 1008.8 |
| 20260509072036 | 17 | 30 | 1.6 | 6.4 | 0.00 | 0.00 | 0.00 | 88 | 1009.0 |
| 20260509071605 | 17 | 355 | 1.6 | 4.8 | 0.00 | 0.00 | 0.00 | 88 | 1009.3 |
| 20260509070236 | 17 | 24 | 0.0 | 3.2 | 0.00 | 0.00 | 0.00 | 88 | 1009.2 |
| 20260509070004 | 17 | 23 | 0.0 | 1.6 | 0.00 | 0.00 | 0.00 | 88 | 1009.4 |
| 20260509065336 | 17 | 27 | 0.0 | 4.8 | 0.00 | 0.00 | 0.00 | 88 | 1009.3 |
| 20260509064509 | 17 | 55 | 0.0 | 1.6 | 0.00 | 0.00 | 0.00 | 88 | 1009.8 |
| 20260509064436 | 17 | 22 | 0.0 | 1.6 | 0.00 | 0.00 | 0.00 | 88 | 1009.5 |
| 20260509063008 | 17 | 23 | 1.6 | 6.4 | 0.00 | 0.00 | 0.00 | 88 | 1010.0 |
| 20260509062636 | 17 | 2 | 1.6 | 6.4 | 0.00 | 0.00 | 0.00 | 89 | 1009.9 |
| 20260509061736 | 17 | 5 | 0.0 | 1.6 | 0.00 | 0.00 | 0.00 | 88 | 1010.4 |
| 20260509061510 | 17 | 5 | 0.0 | 3.2 | 0.00 | 0.00 | 0.00 | 88 | 1010.6 |
| 20260509060836 | 17 | 5 | 0.0 | 3.2 | 0.00 | 0.00 | 0.00 | 88 | 1010.5 |
| 20260509060104 | 17 | 5 | 0.0 | 3.2 | 0.00 | 0.00 | 0.00 | 88 | 1010.8 |
| 20260509055936 | 17 | 357 | 0.0 | 4.8 | 0.00 | 0.00 | 0.00 | 88 | 1010.6 |
| 20260509054508 | 17 | 18 | 0.0 | 4.8 | 0.00 | 0.00 | 0.00 | 87 | 1010.6 |
| 20260509054136 | 17 | 12 | 1.6 | 6.4 | 0.00 | 0.00 | 0.00 | 87 | 1010.3 |
| 20260509053236 | 17 | 34 | 3.2 | 6.4 | 0.00 | 0.00 | 0.00 | 87 | 1009.9 |
| 20260509053008 | 17 | 355 | 3.2 | 6.4 | 0.00 | 0.00 | 0.00 | 87 | 1010.2 |
| 20260509052336 | 17 | 36 | 1.6 | 8.0 | 0.00 | 0.00 | 0.00 | 87 | 1010.0 |
| 20260509051609 | 17 | 29 | 1.6 | 6.4 | 0.00 | 0.00 | 0.00 | 87 | 1010.2 |
| 20260509051436 | 17 | 356 | 3.2 | 8.0 | 0.00 | 0.00 | 0.00 | 87 | 1010.0 |
| 20260509050536 | 17 | 114 | 1.6 | 8.0 | 0.00 | 0.00 | 0.00 | 87 | 1009.9 |
| 20260509050015 | 17 | 138 | 0.0 | 1.6 | 0.00 | 0.00 | 0.00 | 86 | 1009.8 |
| 20260509045636 | 17 | 138 | 0.0 | 1.6 | 0.00 | 0.00 | 0.00 | 86 | 1009.4 |
| 20260509044736 | 17 | 78 | 0.0 | 4.8 | 0.00 | 0.00 | 0.00 | 86 | 1009.2 |
| 20260509044509 | 17 | 145 | 0.0 | 4.8 | 0.00 | 0.00 | 0.00 | 86 | 1009.3 |
| 20260509043104 | 18 | 47 | 0.0 | 4.8 | 0.00 | 0.00 | 0.00 | 86 | 1010.1 |
| 20260509042936 | 18 | 353 | 1.6 | 4.8 | 0.00 | 0.00 | 0.00 | 85 | 1009.9 |
| 20260509042036 | 18 | 24 | 0.0 | 3.2 | 0.00 | 0.00 | 0.00 | 85 | 1009.9 |
| 20260509041604 | 18 | 90 | 0.0 | 3.2 | 0.00 | 0.00 | 0.00 | 84 | 1010.4 |
| 20260509041136 | 18 | 90 | 0.0 | 3.2 | 0.00 | 0.00 | 0.00 | 84 | 1010.3 |
| 20260509040236 | 19 | 0 | 0.0 | 0.0 | 0.00 | 0.00 | 0.00 | 83 | 1010.3 |
| 20260509040005 | 18 | 131 | 0.0 | 0.0 | 0.00 | 0.00 | 0.00 | 82 | 1010.5 |
| 20260509035336 | 19 | 130 | 0.0 | 1.6 | 0.00 | 0.00 | 0.00 | 82 | 1010.4 |
| 20260509034506 | 19 | 131 | 0.0 | 1.6 | 0.00 | 0.00 | 0.00 | 81 | 1011.0 |
| 20260509034436 | 19 | 111 | 0.0 | 1.6 | 0.00 | 0.00 | 0.00 | 81 | 1010.7 |
| 20260509033536 | 19 | 354 | 0.0 | 4.8 | 0.00 | 0.00 | 0.00 | 82 | 1010.5 |
| 20260509033004 | 19 | 355 | 0.0 | 8.0 | 0.00 | 0.00 | 0.00 | 82 | 1010.8 |
| 20260509032636 | 19 | 342 | 4.8 | 11.3 | 0.00 | 0.00 | 0.00 | 82 | 1010.6 |
| 20260509031736 | 19 | 341 | 4.8 | 9.7 | 0.00 | 0.00 | 0.00 | 81 | 1010.0 |
| 20260509031611 | 19 | 355 | 4.8 | 9.7 | 0.00 | 0.00 | 0.00 | 81 | 1010.2 |
| 20260509030836 | 19 | 1 | 3.2 | 8.0 | 0.00 | 0.00 | 0.00 | 80 | 1009.6 |
| 20260509030115 | 19 | 360 | 0.0 | 4.8 | 0.00 | 0.00 | 0.00 | 80 | 1009.4 |
| 20260509025936 | 20 | 32 | 1.6 | 4.8 | 0.00 | 0.00 | 0.00 | 80 | 1009.2 |
| 20260509025036 | 20 | 106 | 0.0 | 4.8 | 0.00 | 0.00 | 0.00 | 79 | 1008.9 |
| 20260509024503 | 19 | 115 | 0.0 | 4.8 | 0.00 | 0.00 | 0.00 | 80 | 1008.7 |
| 20260509024136 | 20 | 148 | 1.6 | 4.8 | 0.00 | 0.00 | 0.00 | 80 | 1008.3 |
| 20260509023236 | 20 | 166 | 1.6 | 6.4 | 0.00 | 0.00 | 0.00 | 80 | 1008.6 |
| 20260509023117 | 19 | 176 | 0.0 | 6.4 | 0.00 | 0.00 | 0.00 | 80 | 1008.9 |
| 20260509022336 | 20 | 161 | 4.8 | 9.7 | 0.00 | 0.00 | 0.00 | 80 | 1008.4 |
| 20260509021509 | 19 | 150 | 4.8 | 9.7 | 0.00 | 0.00 | 0.00 | 81 | 1008.2 |
| 20260509021436 | 20 | 163 | 4.8 | 9.7 | 0.00 | 0.00 | 0.00 | 81 | 1007.9 |